Regional Weather Roundup
Issued by NWS

Home | Current Version | Previous Version | Text Only | Print | Product List | Glossary Off
Versions: 1 2 3 4 5 6 7 8 9 10 11 12 13 14 15 16 17 18 19 20 21 22 23 24 25 26 27 28 29 30 31 32 33 34 35 36 37 38 39 40 41 42 43 44 45 46 47 48 49 50

000
ASUS43 KFSD 161402
RWRSD

WEATHER ROUNDUP FOR SOUTH DAKOTA
NATIONAL WEATHER SERVICE SIOUX FALLS SD
900 AM CDT TUE SEP 16 2014

NOTE: "FAIR" INDICATES FEW OR NO CLOUDS BELOW 12,000 FEET WITH NO
SIGNIFICANT WEATHER AND/OR OBSTRUCTIONS TO VISIBILITY.


SDZ001>005-009-010-012>017-161500-
NORTHWEST AND NORTH CENTRAL SOUTH DAKOTA

CITY           SKY/WX    TMP DP  RH WIND       PRES   REMARKS
FAITH            N/A     47  40  76 CALM      30.02F
MOBRIDGE       SUNNY     51  44  77 S8        30.01F
$$

SDZ012>016-024>037-041>051-057-063-072>074-161500-
SOUTHWEST AND SOUTH CENTRAL SOUTH DAKOTA

CITY           SKY/WX    TMP DP  RH WIND       PRES   REMARKS
RAPID CTY ARPT SUNNY     55  46  71 NW8       30.03S
PIERRE         SUNNY     50  43  77 SE12      30.01F
CUSTER         MOSUNNY   57  38  48 CALM      30.14S
ELLSWORTH AFB  SUNNY     54  46  74 NW5       30.04S
PHILIP         SUNNY     45  41  86 CALM      30.01F
PINE RIDGE     SUNNY     54  50  86 W3        30.05S
WINNER         FAIR      55  43  63 S20G29    30.04F
$$

SDZ004>011-016>023-039-040-161500-
NORTHEAST SOUTH DAKOTA

CITY           SKY/WX    TMP DP  RH WIND       PRES   REMARKS
ABERDEEN       SUNNY     47  42  83 S13       30.08F
WATERTOWN      SUNNY     46  42  86 S8        30.13F
SISSETON         N/A     57  40  52 SW13      30.09F
$$

SDZ017-020-022-023-036>040-048>070-161500-
SOUTHEAST SOUTH DAKOTA

CITY           SKY/WX    TMP DP  RH WIND       PRES   REMARKS
SIOUX FALLS    SUNNY     51  44  77 S9        30.17F
HURON          SUNNY     49  42  77 S12G20    30.10F
CHAMBERLAIN    SUNNY     51  45  80 CALM      30.07S
MITCHELL       SUNNY     49  45  86 S10       30.13F
YANKTON        SUNNY     48  45  87 S5        30.17F
$$

ABBREVIATIONS USED IN REMARKS
   TC - TEMPERATURE IN CELSIUS
  WCI - WIND CHILL INDEX
   HX - HEAT INDEX
  VSB - VISIBILITY



USA.gov is the U.S. government's official web portal to all federal, state and local government web resources and services.